AirNav   Air Wisconsin Up To $57,000 Bonus
 
 1605 users online  

0GE0 Pinewood Airport
Douglasville, Georgia, USA

GOING TO DOUGLASVILLE?


FAA INFORMATION EFFECTIVE 22 APRIL 2021

Location

FAA Identifier: 0GE0
Lat/Long: 33-46-55.3840N 084-48-02.7750W
33-46.923067N 084-48.046250W
33.7820511,-84.8007708
(estimated)
Elevation: 1085 ft. / 330.7 m (surveyed)
Variation: 02W (1985)
From city: 3 miles NW of DOUGLASVILLE, GA
Time zone: UTC -4 (UTC -5 during Standard Time)
Zip code: 30134

Airport Operations

Airport use: Private use. Permission required prior to landing
Activation date: 08/1972
Control tower: no
ARTCC: ATLANTA CENTER
FSS: MACON FLIGHT SERVICE STATION
Attendance: CONTINUOUS
Wind indicator: yes
Segmented circle: no

Airport Communications

WX AWOS-3 at PUJ (10 nm NW): 126.225 (770-445-3870)
WX ASOS at FTY (14 nm E): PHONE 404-696-5660
WX AWOS-3PT at RYY (17 nm NE): PHONE 770-425-3406
WX AWOS-3 at CTJ (20 nm SW): 118.175 (770-214-9667)

Nearby radio navigation aids

VOR radial/distance  VOR name  Freq  Var
ATLr302/20.4ATLANTA VORTAC116.9005W
PDKr262/25.6PEACHTREE VOR/DME116.6005W
RMGr144/27.8ROME VORTAC115.4001E

 
NDB name  Hdg/Dist  Freq  Var  ID
CARROLLTON056/21.027804WGPQ --. .--. --.-
COWETA COUNTY355/31.823403WEQQ . --.- --.-
CHERO214/32.241505WDJD -.. .--- -..
PECAT336/32.931605WFFC ..-. ..-. -.-.

Airport Services

Parking: hangars
Airframe service: NONE
Powerplant service: NONE
Bottled oxygen: NONE
Bulk oxygen: NONE

Runway Information

Runway 2/20

Dimensions: 2000 x 30 ft. / 610 x 9 m
Surface: turf
RUNWAY 2  RUNWAY 20
Traffic pattern: leftleft
Runway end identifier lights: nono
Obstructions: tree
+30' TREE 40' RIGHT OF CENTERLINE.
trees
+50' TREES 35' FROM BOTH SIDES OF RWY AT THR.

Airport Ownership and Management from official FAA records

Ownership: Privately-owned
Owner: MARK BAGWELL
593 OLD MOUNTAIN ROAD NORTHW
KENNESAW, GA 30152
Phone 404-271-2677
Manager: MARK BAGWELL
593 OLD MTN RD
KENNESAW, GA 30152
Phone 404-271-2677

Airport Operational Statistics

Aircraft based on the field: 6
Single engine airplanes: 6
    
Aircraft operations: avg 50/month *
83% local general aviation
17% transient general aviation
* for 12-month period ending 19 September 1978

Additional Remarks

EXCESSIVE GRADE CHANGES BETWEEN RWY ENDS AND CENTER OF RWY.
FOR CD CTC ATLANTA APCH AT 678-364-6131.

Instrument Procedures

There are no published instrument procedures at 0GE0.

Some nearby airports with instrument procedures:

KPUJ - Paulding Northwest Atlanta Airport (10 nm NW)
KFTY - Fulton County Executive Airport/Charlie Brown Field (14 nm E)
KMGE - Dobbins ARB Airport (16 nm NE)
KRYY - Cobb County International Airport-McCollum Field (17 nm NE)
KCTJ - West Georgia Regional Airport-O V Gray Field (20 nm SW)
 
Loc | Ops | Rwys | IFR | FBO | Links
Com | Nav | Svcs | Stats | Notes
Area around 0GE0 (Pinewood Airport)
 
Road maps at: MapQuest Bing Google
 
Aerial photo
WARNING: Photo may not be current or correct
Aerial photo of 0GE0 (Pinewood Airport)
Photo by Bob Meadows
Photo taken 14-Apr-2010
looking Northeast.

Do you have a better or more recent aerial photo of Pinewood Airport that you would like to share? If so, please send us your photo.

 
Sectional chart

 
Airport distance calculator
Flying to Pinewood Airport? Find the distance to fly.

From to 0GE0

Sunrise and sunset
Times for 22-Apr-2021
 Local
(UTC-4)
 Zulu
(UTC)
Morning civil twilight06:3510:35
Sunrise07:0111:01
Sunset20:1400:14
Evening civil twilight20:4000:40

Current date and time
Zulu (UTC)  22-Apr-2021 15:31:21
Local (UTC-4)  22-Apr-2021 11:31:21
 
METAR
KPUJ 
10nm NW 
221515Z AUTO 00000KT 10SM CLR 10/M06 A3025 RMK AO2
KFTY 
14nm E 
221453Z 00000KT 10SM CLR 11/M06 A3026 RMK AO2 SLP247 T01111061 51014
KMGE 
16nm NE 
221456Z 02004KT 10SM CLR 11/M07 A3025 RMK AO2A SLP247 T01111067 51014 $
KRYY 
17nm NE 
221450Z VRB/06KT 10SM CLR 11/M06 A3026
KATL 
20nm SE 
221452Z 33008KT 10SM FEW002 FEW150 FEW200 11/M07 A3025 RMK AO2 SLP247 FU FEW002 T01111072 51016
KCTJ 
20nm SW 
221515Z AUTO 00000KT 10SM CLR 10/M07 A3029 RMK AO2 T01041071
TAF
KFTY 
14nm E 
221134Z 2212/2312 VRB03KT P6SM SKC FM221400 32004KT P6SM SKC FM221800 30008KT P6SM SKC FM222300 VRB03KT P6SM SKC FM230700 02004KT P6SM SCT120
KMGE 
16nm NE 
221300Z 2213/2319 31009KT 9999 SKC QNH3017INS BECMG 2216/2217 30012G18KT 9999 FEW250 QNH3012INS WND VRB05KT AFT 2300 BECMG 2312/2313 12009KT 9999 BKN100 QNH3017INS TX17/2221Z TN05/2311Z
KRYY 
17nm NE 
221134Z 2212/2312 VRB03KT P6SM SKC FM221400 32004KT P6SM SKC FM221800 30008KT P6SM SKC FM222300 VRB03KT P6SM SKC FM230700 02004KT P6SM SCT120
KATL 
20nm SE 
221353Z 2214/2318 35005KT P6SM SKC FM221700 31008G16KT P6SM SKC FM222300 32005KT P6SM SKC FM230600 02004KT P6SM SCT120 FM231400 12007KT P6SM SCT080 BKN120
NOTAMs
Click for the latest NOTAMs
NOTAMs are issued by the DoD/FAA and will open in a separate window not controlled by AirNav.

 

 
 

Would you like to see your business listed on this page?

 If your business provides an interesting product or service to pilots, flight crews, aircraft, or users of the Pinewood Airport, you should consider listing it here.  To start the listing process, click on the button below
 
Add a business
 

Other Pages about Pinewood Airport

Update a link
 
Copyright © AirNav, LLC. All rights reserved. Privacy Policy  Contact